Sanford, FL

4:14 AM EDT on June 25, 2017 (GMT -0400)
Orlando Sanford

Weather History for KSFB - July, 2013

Change the Weather History Date:

Wednesday, July 10, 2013

  Actual Average Record
Temperature  
Mean Temperature 81 °F -  
Max Temperature 90 °F 92 °F 97 °F (1962)
Min Temperature 73 °F 71 °F 65 °F (1966)
Cooling Degree Days 16    
Growing Degree Days 31 (Base 50)    
Moisture  
Dew Point 72 °F    
Average Humidity 77    
Maximum Humidity 96    
Minimum Humidity 53    
Precipitation  
Precipitation 0.00 in - - ()
Sea Level Pressure  
Sea Level Pressure 30.06 in    
Wind  
Wind Speed 4 mph (SE)    
Max Wind Speed 13 mph    
Max Gust Speed 20 mph    
Visibility 10 miles    
Events Rain    
Averages and records for this station are not official NWS values.
T = Trace of Precipitation, MM = Missing Value Source: NWS Daily Summary

Daily Weather History Graph

Daily Weather History Graph

Search for Another Location

Airport or City:

Trip Planner

Search our weather history database for the weather conditions in past years. The results will help you decide how hot, cold, wet, or windy it might be!

Date:

Astronomy

Jul. 10, 2013 Rise Set
Actual Time 6:34 AM EDT 8:26 PM EDT
Civil Twilight 6:07 AM EDT 8:52 PM EDT
Nautical Twilight 5:35 AM EDT 9:24 PM EDT
Astronomical Twilight 5:01 AM EDT 9:58 PM EDT
Moon 8:39 AM EDT (7/10) 9:52 PM EDT (7/10)
Length of Visible Light 14h 45m
Length of Day
13h 51m
Waxing Crescent, 5% of the Moon is Illuminated
Jul 10
Waxing Crescent
Jul 15
First Quarter
Jul 22
Full
Jul 29
Last Quarter
Aug 6
New

Hourly Weather History & Observations

Time (EDT) Temp. Heat Index Dew Point Humidity Pressure Visibility Wind Dir Wind Speed Gust Speed Precip Events Conditions
12:53 AM 75.0 °F - 72.0 °F 90% 30.10 in 10.0 mi ENE 3.5 mph - N/A   Clear
1:53 AM 73.9 °F - 72.0 °F 93% 30.09 in 10.0 mi Calm Calm - N/A   Clear
2:53 AM 73.9 °F - 72.0 °F 93% 30.09 in 10.0 mi Calm Calm - N/A   Clear
3:53 AM 73.9 °F - 72.0 °F 93% 30.09 in 10.0 mi East 5.8 mph - N/A   Clear
4:53 AM 73.0 °F - 72.0 °F 96% 30.08 in 10.0 mi Calm Calm - N/A   Clear
5:53 AM 73.0 °F - 72.0 °F 96% 30.08 in 10.0 mi Calm Calm - N/A   Clear
6:53 AM 73.0 °F - 71.1 °F 93% 30.07 in 10.0 mi Calm Calm - N/A   Clear
7:53 AM 75.9 °F - 73.0 °F 91% 30.09 in 10.0 mi Calm Calm - N/A   Clear
8:53 AM 79.0 °F - 73.9 °F 84% 30.10 in 10.0 mi SE 3.5 mph - N/A   Partly Cloudy
9:53 AM 81.0 °F 85.8 °F 73.0 °F 77% 30.10 in 10.0 mi SE 6.9 mph - N/A   Partly Cloudy
10:53 AM 82.9 °F 87.5 °F 71.1 °F 67% 30.10 in 10.0 mi Calm Calm - N/A   Clear
11:53 AM 86.0 °F 90.7 °F 70.0 °F 59% 30.09 in 10.0 mi SE 8.1 mph - N/A   Clear
12:53 PM 88.0 °F 93.8 °F 71.1 °F 57% 30.09 in 10.0 mi ESE 9.2 mph - N/A   Partly Cloudy
1:53 PM 81.0 °F 86.2 °F 73.9 °F 79% 30.07 in 9.0 mi ESE 11.5 mph - 0.00 in Rain Light Rain
2:53 PM 88.0 °F 92.9 °F 70.0 °F 55% 30.03 in 10.0 mi SSE 10.4 mph 16.1 mph 0.00 in   Partly Cloudy
3:53 PM 89.1 °F 95.0 °F 71.1 °F 55% 30.01 in 10.0 mi ESE 11.5 mph 19.6 mph N/A   Partly Cloudy
4:53 PM 88.0 °F 92.1 °F 69.1 °F 53% 30.00 in 10.0 mi SE 5.8 mph - N/A   Clear
5:53 PM 88.0 °F 92.9 °F 70.0 °F 55% 29.99 in 10.0 mi ESE 6.9 mph - N/A   Clear
6:53 PM 84.0 °F 89.6 °F 72.0 °F 67% 29.99 in 10.0 mi East 12.7 mph - N/A   Clear
7:53 PM 82.0 °F 86.7 °F 72.0 °F 71% 30.00 in 10.0 mi ESE 9.2 mph - N/A   Clear
8:53 PM 80.1 °F 83.8 °F 72.0 °F 76% 30.01 in 10.0 mi SE 8.1 mph - N/A   Clear
9:53 PM 79.0 °F - 72.0 °F 79% 30.03 in 10.0 mi SE 6.9 mph - N/A   Clear
10:53 PM 78.1 °F - 73.0 °F 84% 30.04 in 10.0 mi SE 5.8 mph - N/A   Clear
11:53 PM 78.1 °F - 72.0 °F 81% 30.05 in 10.0 mi SSE 9.2 mph - N/A   Clear